Flag for Namibia Weather past 2 weeks in Walvis Bay, Namibia

Now
37 °F

Chilly.


Feels Like: 33 °F
Forecast: 60 / 76 °F
Wind: 6 mph from Southwest

Location: J. G. Strijdom

Current Time: Sep 3, 2015 at 3:34:22 AM

Latest Report: Sep 3, 2015 at 3:00 AM


Visibility: N/A

Pressure: 30.33 "Hg

Humidity: 45%

Dew point: 18 °F

Location of Walvis BayLocation

Historic Weather in Walvis Bay — Graph

°F

Walvis Bay temperature yesterday

Maximum temperature yesterday: 73 °F (at 3:00 PM)
Minimum temperature yesterday: 37 °F (at 3:00 AM)
Average temperature yesterday: 59 °F

Past Weeks' High & Low Weather Summary

 TemperatureHumidityPressure
High86 °F (Aug 30, 1:00 PM)88% (Aug 25, 6:00 AM)30.39 "Hg (Aug 25, 6:00 AM)
Low32 °F (Sep 1, 3:00 AM)6% (Aug 31, 12:00 PM)30.09 "Hg (Aug 19, 2:00 PM)
Average65 °F27%30.21 "Hg
* Reported Aug 18 9:00 PM — Sep 2 9:00 PM, Walvis Bay, Weather by CustomWeather, © 2015

Note: Actual official high and low records may vary slightly from our data, if they occured in-between our weather recording intervals... More about our weather records

Advertising

Walvis Bay weather history for previous 24 hours

 ConditionsComfort  
Time TempWeatherWind HumidityBarometerVisibility
9:00 PM
Wed, Sep 2
50 °FClear.7 mph30%30.30 "Hg10 mi
7:00 PM59 °FClear.6 mph23%30.27 "Hg10 mi
6:00 PM64 °FClear.7 mph18%30.24 "Hg10 mi
5:00 PM73 °FClear.9 mph11%30.24 "Hg10 mi
4:00 PM73 °FSunny.8 mph13%30.24 "Hg10 mi
3:00 PM73 °FSunny.No wind13%30.24 "Hg10 mi
2:00 PM72 °FSunny.8 mph15%30.27 "Hg10 mi
1:00 PM72 °FSunny.5 mph14%30.27 "Hg10 mi
12:00 PM68 °FSunny.5 mph21%30.30 "Hg10 mi
11:00 AM64 °FSunny.5 mph24%30.33 "Hg10 mi
9:00 AM57 °FSunny.9 mph31%30.33 "Hg10 mi
8:00 AM52 °FSunny.9 mph35%30.33 "Hg10 mi
7:00 AM43 °FSunny.5 mph49%30.30 "Hg10 mi
5:00 AM41 °FSunny.No wind57%30.27 "Hg10 mi
4:00 AM37 °FClear.No wind60%30.27 "Hg10 mi
3:00 AM37 °FClear.3 mph60%30.24 "Hg10 mi
Weather by CustomWeather, © 2015

See weather overviewHow to use our weather pages